Weather in Credny Maydan

Ukraine / Ivano-Frankovsk District     48°38′14″N   24°45′27″E
temp.,
°C
wind,
m/s
gust,
m/s
humid.,
%
clouds,
%
prec.,
mm/h
press.,
hPa
HPBL,
m
30 june, thu
thu3000:00+20w11675 0.0 101511
03:00+19wsw22692 0.0 101511
06:00+18wsw11680 0.0 101511
09:00+26nne00483 0.0 1015272
12:00+32ne21335 0.0 10141436
15:00+34nne222714 0.0 10132922
18:00+27ese595169 0.2 1013271
21:00+23sw347390 0.8 101463
1 july, fri
fri100:00+19sse39897 0.2 1015231
03:00+18se23910 0.2 101554
06:00+17se23925 0.0 101553
09:00+23se57664 0.0 1016513
12:00+29se664618 0.0 10151172
15:00+32ese553897 0.0 10141606
18:00+31se5439100 0.0 10142123
21:00+24s356362 0.0 1015104
2 july, sat
sat200:00+19s22775 0.0 101623
03:00+17sse11819 0.0 101711
06:00+17wnw118210 0.0 101916
09:00+23nw56686 0.0 1019715
12:00+24nw656676 0.0 10211007
15:00+25nw556151 0.2 10211043
18:00+19wnw5791100 1.1 1022483
21:00+18wnw369499 1.2 1022242
3 july, sun
sun300:00+17nw369580 0.1 1023197
03:00+15wnw259726 0.1 1022113
06:00+16w2595100 0.0 1022246
09:00+18wnw238699 0.0 1022376
12:00+22n326360 0.0 10211030
15:00+25nne225293 0.1 10191484
18:00+25ne025073 0.0 1019826
21:00+21wnw22635 0.0 101813
4 july, mon
mon400:00+17nw11730 0.0 102012
03:00+15w11850 0.0 101911
06:00+14wnw11880 0.0 101911
09:00+22nnw11600 0.0 1019404
12:00+27nnw22400 0.0 10181646
15:00+30nnw34240 0.0 10172305
18:00+30nnw44235 0.0 10162207
21:00+22nne23420 0.0 101840